Date,TemperatureHighF,TemperatureAvgF,TemperatureLowF,DewpointHighF,DewpointAvgF,DewpointLowF,HumidityHigh,HumidityAvg,HumidityLow,PressureMaxIn,PressureMinIn,WindSpeedMaxMPH,WindSpeedAvgMPH,GustSpeedMaxMPH,PrecipitationSumIn
2013-1-1,57.5,40.9,31.9,42.9,35.5,30.6,97,83,49,30.25,30.14,6,0,6,0.00
2013-1-2,63.7,41.4,29.0,41.7,33.9,27.6,96,79,35,30.21,30.09,5,0,5,0.01
2013-1-3,61.2,40.8,28.9,43.1,34.6,27.5,96,81,46,30.23,30.13,6,0,6,0.00
2013-1-4,65.0,43.3,31.3,41.5,35.4,29.7,96,78,33,30.25,30.15,8,0,8,0.00
2013-1-5,52.9,45.3,36.4,48.5,43.3,34.6,97,93,82,30.25,30.06,13,0,13,0.66
2013-1-6,48.3,44.2,37.5,46.2,42.7,36.4,97,94,87,30.16,30.02,4,0,4,0.04
2013-1-7,57.0,44.7,35.3,49.6,42.1,34.2,98,91,73,30.24,30.12,6,0,6,0.01
2013-1-8,61.6,46.4,36.8,55.4,43.1,35.9,98,89,67,30.19,30.09,7,0,7,0.01
2013-1-9,41.4,40.3,39.7,39.7,39.1,38.6,96,96,94,30.12,30.09,2,0,3,0.00
2013-1-10,48.9,41.5,35.5,39.7,36.1,34.3,97,82,57,30.17,30.04,4,1,17,0.02
2013-1-11,53.1,41.8,30.0,39.6,35.7,28.2,96,80,54,30.24,30.11,13,1,13,0.01
2013-1-12,51.2,40.2,31.0,36.6,33.5,28.6,95,79,46,30.23,30.11,9,1,9,0.00
2013-1-13,53.7,36.3,26.5,30.8,26.2,20.9,94,71,30,30.24,30.13,7,0,7,0.01
2013-1-14,53.9,39.8,30.2,27.2,19.9,13.4,81,47,24,30.38,30.19,8,0,9,0.00
2013-1-15,54.7,38.8,26.6,33.5,28.1,24.2,91,69,34,30.45,30.37,9,0,9,0.00
2013-1-16,63.6,41.7,27.9,38.0,32.2,25.8,94,74,33,30.41,30.22,6,0,6,0.00
2013-1-17,75.0,47.0,30.1,44.0,34.8,27.8,95,71,18,30.23,30.09,6,0,6,0.00
2013-1-18,73.9,47.6,31.5,44.7,34.3,22.1,95,69,15,30.18,30.08,8,0,8,0.00
2013-1-19,73.7,48.3,32.3,45.6,35.8,30.1,94,69,23,30.19,30.10,7,0,7,0.00
2013-1-20,76.0,48.6,31.4,41.9,35.3,29.1,93,68,22,30.18,30.06,5,0,5,0.00
2013-1-21,75.7,48.1,30.6,42.2,34.1,24.3,94,67,16,30.13,30.02,6,0,7,0.01
2013-1-22,70.5,48.2,31.7,42.0,35.0,28.3,93,67,23,30.09,29.98,8,0,9,0.00
2013-1-23,54.4,48.5,43.7,49.3,43.8,37.3,96,84,72,30.05,29.94,6,0,6,0.06
2013-1-24,53.5,51.0,48.3,52.6,50.1,47.2,98,97,96,30.15,30.01,3,0,3,0.31
2013-1-25,70.7,56.5,49.8,60.9,53.8,48.6,98,91,67,30.15,30.00,8,0,8,0.01
2013-1-26,57.7,48.0,40.4,51.3,43.0,38.2,98,84,56,30.07,29.97,13,1,15,0.00
2013-1-27,58.9,45.7,38.4,41.0,38.2,33.7,95,77,44,30.14,30.05,9,1,9,0.00
2013-1-28,60.9,46.5,36.0,43.3,39.7,34.0,94,79,46,30.27,30.13,9,1,10,0.00
2013-1-29,64.3,47.6,39.1,48.3,41.6,36.9,94,81,55,30.32,30.21,4,0,8,0.00
2013-1-30,65.0,49.9,39.9,47.5,42.7,37.8,96,79,48,30.33,30.23,7,1,7,0.00
2013-1-31,67.8,48.4,33.5,48.6,41.1,32.2,97,79,45,30.25,30.14,5,0,6,0.01
2013-2-1,72.3,48.0,35.2,50.8,42.5,33.6,97,84,41,30.21,30.08,9,0,9,0.00
2013-2-2,62.4,47.6,39.2,51.4,44.0,38.1,97,88,64,30.25,30.18,7,0,7,0.01
2013-2-3,58.4,46.7,39.8,48.4,43.0,38.6,97,88,67,30.23,30.10,7,0,8,0.00
2013-2-4,65.2,47.0,33.7,51.4,42.1,32.6,98,85,59,30.15,30.02,7,1,7,0.01
2013-2-5,57.6,46.9,39.4,46.7,42.8,37.8,96,86,65,30.13,30.04,12,1,13,0.00
2013-2-6,60.3,45.7,32.8,48.1,40.4,31.5,97,83,61,30.17,30.09,8,1,8,0.00
2013-2-7,55.4,42.2,33.0,46.8,37.7,31.5,96,85,55,30.17,29.99,10,0,11,0.04
2013-2-8,54.5,41.8,33.5,42.3,37.7,31.8,97,86,54,29.99,29.92,10,0,11,0.04
2013-2-9,57.2,40.3,27.6,43.5,34.3,26.3,97,81,52,30.09,29.97,7,1,9,0.01
2013-2-10,64.4,42.9,28.4,44.1,34.1,27.1,96,76,33,30.10,29.99,5,0,8,0.00
2013-2-11,65.2,44.8,30.1,43.0,32.4,24.3,96,69,24,30.23,30.05,8,0,10,0.01
2013-2-12,61.4,45.1,32.6,41.6,36.4,30.2,95,75,43,30.33,30.23,7,1,8,0.00
2013-2-13,63.4,45.8,31.5,47.1,38.3,29.9,97,78,46,30.32,30.19,8,1,8,0.00
2013-2-14,74.8,54.2,34.6,45.6,40.3,33.2,96,65,33,30.21,30.10,7,0,8,0.00
2013-2-15,79.3,54.9,37.0,48.0,39.4,33.1,94,65,20,30.22,30.15,8,0,8,0.00
2013-2-16,76.3,54.2,39.3,48.5,40.5,32.4,93,67,21,30.20,30.01,8,0,8,0.00
2013-2-17,61.1,46.7,35.1,48.7,41.9,33.5,97,84,62,30.03,29.94,9,1,9,0.00
2013-2-18,51.2,43.7,36.7,44.8,39.7,35.4,97,86,67,30.04,29.97,10,0,11,0.01
2013-2-19,46.0,41.2,35.6,44.5,38.9,33.7,96,92,78,29.98,29.74,10,1,12,0.31
2013-2-20,58.5,43.0,30.1,41.3,35.7,28.8,97,78,41,30.06,29.81,15,1,15,0.01
2013-2-21,62.4,47.4,36.3,39.4,36.6,32.3,93,70,34,30.16,30.03,9,1,12,0.00
2013-2-22,65.6,46.3,30.5,47.3,37.1,28.8,95,74,39,30.23,30.15,7,1,7,0.00
2013-2-23,61.5,48.7,36.6,42.8,39.2,33.6,94,72,40,30.23,30.11,11,1,13,0.00
2013-2-24,64.7,49.4,34.9,33.8,28.3,22.9,90,48,23,30.24,30.12,15,1,15,0.00
2013-2-25,66.8,46.6,30.6,45.8,37.0,28.0,91,72,41,30.25,30.13,14,1,14,0.00
2013-2-26,71.0,50.6,33.4,37.8,30.5,20.4,95,56,17,30.19,30.08,8,0,9,0.00
2013-2-27,39.0,36.5,34.3,32.4,31.5,30.4,86,82,77,30.20,30.18,1,0,1,0.00
2013-2-28,75.2,57.4,38.9,53.4,47.5,36.7,93,72,45,30.41,30.33,7,1,8,0.00
2013-3-1,79.0,57.6,41.3,54.6,47.7,39.9,97,74,40,30.40,30.18,9,1,9,0.00
2013-3-2,72.6,55.7,45.7,52.9,46.7,43.2,95,75,37,30.21,30.05,8,1,8,0.00
2013-3-3,61.6,51.9,45.5,52.4,47.8,42.9,94,86,70,30.09,30.01,8,1,10,0.00
2013-3-4,62.4,50.6,44.7,49.3,44.8,41.9,92,81,59,30.12,30.03,8,1,8,0.00
2013-3-5,52.1,45.6,43.6,44.0,42.5,39.8,95,89,67,30.06,29.91,18,1,22,0.48
2013-3-6,55.5,47.9,38.9,47.0,43.4,37.4,96,85,61,30.07,29.90,19,2,26,0.42
2013-3-7,56.9,44.8,36.6,45.2,40.2,35.5,97,86,50,29.99,29.83,10,1,10,0.26
2013-3-8,58.4,47.8,41.4,47.2,42.2,39.5,97,82,57,30.07,29.80,16,2,23,0.04
2013-3-9,68.3,53.5,41.5,46.0,41.2,36.1,90,66,32,30.28,30.07,10,1,10,0.00
2013-3-10,67.6,49.3,34.3,49.6,41.3,32.7,97,77,45,30.32,30.22,9,1,9,0.00
2013-3-11,75.0,52.4,36.0,46.1,40.3,34.4,95,70,30,30.24,30.07,7,1,8,0.00
2013-3-12,78.5,55.6,38.3,52.1,45.0,36.8,96,73,34,30.12,30.02,7,1,7,0.00
2013-3-13,82.8,58.5,42.8,55.4,47.7,41.4,96,74,27,30.11,30.02,7,1,7,0.00
2013-3-14,73.5,54.4,43.5,56.0,45.4,39.4,97,74,41,30.11,30.06,4,0,8,0.00
2013-3-15,76.2,56.5,40.8,53.3,44.9,38.1,90,68,39,30.10,30.00,9,1,9,0.00
2013-3-16,74.3,55.9,42.2,55.7,43.8,29.8,97,70,20,30.07,29.99,15,1,16,0.00
2013-3-17,70.1,53.5,40.0,50.0,42.4,37.6,94,69,36,30.10,30.00,8,1,9,0.00
2013-3-18,65.8,50.8,37.1,51.6,43.4,35.5,95,77,56,30.10,30.01,7,1,7,0.00
2013-3-19,75.5,54.7,42.1,50.9,44.3,38.1,95,72,34,30.12,30.03,10,1,11,0.12
2013-3-20,64.8,55.1,50.0,54.9,51.0,44.9,97,87,57,30.10,30.05,10,1,10,0.01
2013-3-21,70.2,54.1,42.0,49.2,42.4,37.8,88,68,33,30.10,29.96,12,1,14,0.00
2013-3-22,71.8,53.5,36.8,40.1,30.7,19.3,94,51,15,30.06,29.98,12,1,13,0.00
2013-3-23,73.7,52.9,34.9,42.4,35.1,20.6,89,57,15,30.09,30.00,7,1,8,0.00
2013-3-24,75.7,52.4,36.4,48.8,41.5,34.1,93,71,29,30.06,29.93,7,1,7,0.00
2013-3-25,68.7,51.3,39.6,51.3,43.2,38.1,95,77,42,30.00,29.91,8,1,8,0.00
2013-3-26,70.1,49.5,42.2,50.6,43.7,40.0,92,82,50,29.98,29.89,3,1,8,0.00
2013-3-27,65.6,53.6,45.5,53.5,49.2,43.6,96,86,64,30.01,29.93,9,1,11,0.01
2013-3-28,67.5,56.6,49.0,57.2,52.4,47.3,97,87,65,30.06,29.99,8,1,8,0.16
2013-3-29,72.5,56.2,45.5,58.3,50.1,44.4,98,82,52,30.05,30.00,8,1,9,0.00
2013-3-30,65.9,54.4,49.4,55.9,50.6,48.3,97,88,59,30.07,29.99,13,1,13,0.51
2013-3-31,62.5,55.2,51.2,54.3,51.7,49.8,97,89,67,30.06,29.99,18,2,19,0.11
2013-4-1,67.0,55.8,47.9,53.7,50.5,46.0,97,84,56,30.13,30.03,10,1,10,0.36
2013-4-2,72.1,56.1,43.2,55.2,49.0,42.1,97,80,50,30.16,30.05,7,1,8,0.00
2013-4-3,75.3,56.3,44.9,55.5,49.1,43.8,97,80,40,30.10,29.96,9,1,9,0.00
2013-4-4,60.7,52.9,48.4,56.2,51.4,47.1,98,95,83,30.10,30.00,8,1,8,0.36
2013-4-5,72.2,57.9,51.1,56.4,51.8,47.4,97,82,51,30.16,30.08,12,1,12,0.00
2013-4-6,69.5,55.4,45.1,56.8,49.7,43.8,97,83,48,30.18,30.09,10,1,12,0.00
2013-4-7,71.5,55.2,45.3,58.7,49.0,43.8,97,81,45,30.16,29.87,11,1,12,0.06
2013-4-8,66.7,53.0,44.9,49.3,39.9,32.6,95,64,30,29.99,29.78,23,3,25,0.02
2013-4-9,74.7,58.9,40.2,40.6,36.7,32.1,93,50,22,30.04,29.97,13,1,16,0.00
2013-4-10,64.8,63.8,62.8,37.0,35.7,34.4,38,35,33,30.03,30.01,10,1,13,0.00
2013-4-11,73.0,61.7,46.7,53.4,47.9,41.3,89,63,37,30.03,29.82,13,2,15,0.00
2013-4-12,75.7,54.8,39.4,53.4,46.1,37.8,96,76,40,29.90,29.81,8,1,8,0.00
2013-4-13,70.0,52.2,41.8,53.2,43.5,36.9,96,75,40,29.90,29.83,17,1,17,0.00
2013-4-14,72.4,52.1,38.7,47.6,41.6,36.7,94,71,32,29.91,29.84,15,2,15,0.00
2013-4-15,57.0,49.0,43.1,46.1,39.8,34.6,94,72,47,29.94,29.85,13,2,24,0.00
2013-4-16,67.0,51.1,36.2,37.7,34.9,29.1,92,59,26,30.10,29.93,13,1,15,0.00
2013-4-17,71.0,55.0,42.6,37.2,32.5,26.4,75,46,19,30.22,30.10,18,1,18,0.00
2013-4-18,81.7,57.8,36.7,46.0,35.8,26.5,88,53,15,30.24,30.14,11,0,11,0.00
2013-4-19,82.7,58.5,41.1,49.6,43.9,37.5,89,63,28,30.21,30.05,10,1,11,0.00
2013-4-20,86.5,62.7,46.4,52.5,46.4,40.9,91,61,25,30.07,29.93,8,1,9,0.00
2013-4-21,90.5,64.6,43.8,53.7,45.8,35.0,92,59,17,29.99,29.89,9,1,9,0.00
2013-4-22,75.0,57.8,47.3,55.0,48.2,42.6,94,72,46,29.93,29.85,8,1,10,0.00
2013-4-23,65.8,53.3,46.1,53.4,48.6,45.0,97,85,62,29.95,29.84,9,2,10,0.00
2013-4-24,50.0,49.5,48.8,48.3,47.6,46.8,94,93,93,29.88,29.83,3,0,3,0.00
2013-4-25,73.8,55.5,43.6,52.3,47.8,42.3,97,77,45,30.10,29.96,3,0,9,0.00
2013-4-26,75.0,56.4,43.9,56.0,48.9,42.2,96,78,48,30.19,30.10,7,1,9,0.00
2013-4-27,80.0,57.2,44.1,54.9,48.3,42.4,96,76,36,30.19,30.05,8,1,9,0.00
2013-4-28,78.1,57.7,43.7,56.0,49.1,42.3,97,76,41,30.06,29.87,8,1,8,0.00
2013-4-29,89.2,64.8,48.2,58.3,51.4,44.3,95,68,26,29.88,29.73,8,1,9,0.00
2013-4-30,79.8,60.9,46.9,55.6,49.9,42.5,93,71,30,29.82,29.74,9,1,9,0.00
2013-5-1,72.1,56.9,47.2,55.4,49.4,44.4,96,78,51,30.07,29.82,8,1,8,0.00
2013-5-2,90.3,65.4,47.3,55.3,49.2,43.6,92,63,22,30.11,30.05,8,1,8,0.00
2013-5-3,91.3,66.3,46.9,52.3,44.3,28.0,86,56,11,30.07,29.78,9,1,10,0.00
2013-5-4,72.2,55.8,47.1,53.8,48.6,42.6,88,78,47,29.78,29.63,13,2,13,0.00
2013-5-5,64.8,56.1,51.5,51.2,49.3,47.3,88,78,57,29.79,29.62,21,3,21,0.00
2013-5-6,64.5,57.6,52.5,53.0,51.1,49.3,90,79,63,29.95,29.79,13,1,13,0.00
2013-5-7,71.5,60.3,50.7,53.7,49.9,45.6,91,71,40,30.03,29.93,10,1,10,0.00
2013-5-8,76.0,58.1,46.1,55.5,48.6,44.1,96,74,39,30.11,30.02,9,1,9,0.00
2013-5-9,74.8,58.0,48.1,55.7,50.1,45.8,92,77,49,30.15,30.05,9,1,9,0.00
2013-5-10,77.9,59.0,46.7,57.1,51.0,44.5,94,77,48,30.16,30.07,10,1,10,0.00
2013-5-11,86.5,62.7,47.9,60.5,52.3,46.3,96,74,34,30.12,30.02,8,1,9,0.00
2013-5-12,89.3,64.3,48.6,58.9,52.8,46.8,96,71,31,30.10,29.98,9,1,9,0.00
2013-5-13,83.3,63.4,47.8,57.6,51.3,44.9,93,69,36,30.06,29.93,9,1,10,0.00
2013-5-14,72.7,58.7,49.2,55.5,50.6,43.8,92,76,53,30.03,29.93,9,1,9,0.00
2013-5-15,73.7,59.3,43.5,52.4,46.2,41.3,94,64,34,30.05,30.01,17,2,17,0.00
2013-5-16,75.5,60.0,52.6,59.1,51.5,46.3,94,75,46,30.03,29.94,12,1,12,0.01
2013-5-17,76.0,58.3,45.2,50.8,44.4,33.3,94,65,23,30.07,29.97,14,1,14,0.00
2013-5-18,77.8,59.1,43.5,52.9,47.2,40.4,91,67,28,30.11,30.06,13,2,16,0.00
2013-5-19,90.3,65.2,44.5,54.5,45.5,32.6,93,57,15,30.09,29.93,13,1,13,0.00
2013-5-20,96.9,68.1,45.1,50.7,41.5,28.9,86,49,10,29.97,29.88,12,1,12,0.00
2013-5-21,71.5,57.3,48.4,52.2,44.8,32.8,93,66,25,29.97,29.89,17,2,17,0.00
2013-5-22,71.7,53.6,41.6,41.9,36.2,23.6,80,57,18,29.97,29.90,16,2,16,0.00
2013-5-23,72.0,56.3,46.0,45.7,41.5,37.9,83,60,35,30.00,29.92,12,2,16,0.00
2013-5-24,46.2,43.3,40.4,40.6,39.1,37.2,90,85,80,29.98,29.96,3,0,3,0.00
2013-5-25,75.3,60.5,44.6,50.8,45.9,40.6,90,61,31,30.06,29.98,16,2,18,0.00
2013-5-26,74.3,60.1,49.7,56.4,50.0,46.6,91,72,42,30.11,30.03,16,2,16,0.00
2013-5-27,68.8,58.9,48.9,57.8,51.8,45.8,91,78,60,30.11,29.99,10,1,12,0.00
2013-5-28,78.0,63.5,53.1,59.1,53.5,47.6,93,72,40,30.00,29.87,13,1,13,0.00
2013-5-29,78.8,60.9,49.6,58.6,49.8,44.1,91,69,36,29.94,29.86,17,2,17,0.00
2013-5-30,80.3,59.6,43.1,52.2,44.8,30.3,93,63,19,29.97,29.91,11,1,16,0.00
2013-5-31,95.5,65.0,43.6,54.3,46.2,31.3,91,60,11,29.98,29.86,9,1,9,0.00
2013-6-1,89.0,65.6,49.6,57.6,51.5,45.6,88,65,29,29.91,29.74,9,1,10,0.00
2013-6-2,72.7,58.4,49.0,56.1,51.1,46.1,94,78,52,29.77,29.70,9,1,10,0.00
2013-6-3,65.0,55.7,50.9,53.6,50.2,47.8,93,82,63,29.86,29.74,9,1,12,0.00
2013-6-4,67.0,55.3,46.0,55.3,50.2,44.3,95,84,64,29.96,29.84,9,1,9,0.00
2013-6-5,74.3,57.5,46.6,55.8,50.6,44.8,96,80,50,29.98,29.91,8,1,9,0.00
2013-6-6,71.2,58.4,51.0,55.8,51.7,49.0,93,80,57,29.95,29.86,9,1,10,0.00
2013-6-7,78.5,60.7,50.0,60.0,53.1,48.6,96,78,49,29.89,29.74,7,1,8,0.00
2013-6-8,69.0,57.3,49.4,57.8,52.8,48.0,96,86,66,29.85,29.74,10,2,10,0.00
2013-6-9,61.2,57.2,54.2,56.9,54.0,51.9,96,89,82,29.89,29.82,8,1,9,0.03
2013-6-10,67.5,59.6,54.4,54.7,52.3,49.9,88,77,62,29.94,29.85,11,1,13,0.00
2013-6-11,79.6,62.6,52.1,59.0,53.7,49.5,93,75,45,29.95,29.86,8,1,8,0.00
2013-6-12,54.1,51.8,49.5,51.1,49.5,47.5,93,92,90,29.90,29.89,0,0,1,0.00
2013-6-13,83.8,61.3,43.4,53.5,47.0,37.7,92,64,24,30.06,29.96,3,1,10,0.00
2013-6-14,91.3,65.6,45.4,54.9,47.6,39.6,91,61,20,29.97,29.78,11,1,11,0.00
2013-6-15,73.8,59.7,49.3,55.2,51.4,47.6,96,76,50,30.00,29.82,9,1,10,0.00
2013-6-16,86.0,63.3,49.6,56.4,50.1,42.8,93,67,25,30.06,29.99,14,1,15,0.00
2013-6-17,81.8,63.1,49.0,57.8,51.1,45.3,89,68,34,30.07,29.99,14,1,15,0.00
2013-6-18,72.8,60.1,52.2,51.8,48.7,44.1,90,68,38,30.02,29.97,14,2,16,0.00
2013-6-19,77.6,61.8,50.6,52.6,46.9,39.8,85,61,28,30.02,29.96,14,2,14,0.00
2013-6-20,82.6,61.4,44.2,52.3,45.4,30.1,93,61,17,29.99,29.90,16,2,17,0.00
2013-6-21,83.3,62.4,44.9,54.8,47.5,35.0,91,63,19,29.96,29.88,10,1,12,0.00
2013-6-22,87.0,64.3,46.0,56.4,49.2,37.7,92,64,22,29.91,29.83,10,2,13,0.00
2013-6-23,68.8,60.0,53.3,60.3,55.4,50.9,94,85,72,29.87,29.80,8,1,8,0.00
2013-6-24,61.0,58.6,57.7,58.8,57.2,56.1,97,95,91,29.91,29.78,5,1,6,0.02
2013-6-25,67.9,60.6,56.3,65.2,59.3,55.4,98,95,89,30.00,29.90,4,0,5,0.08
2013-6-26,90.2,71.4,59.6,68.8,62.1,57.6,98,77,42,30.01,29.92,9,1,10,0.00
2013-6-27,94.5,73.8,57.3,65.7,59.3,55.5,96,66,30,30.02,29.95,7,1,8,0.00
2013-6-28,99.3,77.0,57.6,62.6,56.5,43.0,88,55,17,29.99,29.85,9,1,11,0.00
2013-6-29,97.3,73.8,58.3,61.1,56.5,52.3,85,59,26,29.89,29.77,9,1,9,0.00
2013-6-30,90.0,69.9,55.3,60.6,56.9,52.6,93,68,35,29.83,29.73,9,1,9,0.00
2013-7-1,86.8,68.9,55.9,61.7,56.8,53.1,91,68,41,29.86,29.77,7,1,8,0.00
2013-7-2,86.1,69.1,55.9,62.1,57.6,53.3,92,69,41,29.92,29.81,10,1,10,0.00
2013-7-3,82.7,66.2,55.5,62.2,57.7,54.0,95,76,48,29.91,29.76,8,1,8,0.00
2013-7-4,80.5,65.3,56.2,62.0,57.8,54.5,95,78,52,29.77,29.71,9,2,10,0.00
2013-7-5,79.3,62.2,53.4,58.9,54.3,50.3,95,77,47,29.80,29.72,10,1,10,0.00
2013-7-6,72.3,58.6,53.2,56.9,52.7,50.1,93,82,57,29.81,29.75,7,1,9,0.00
2013-7-7,70.8,58.8,52.9,56.4,52.5,49.9,93,81,59,29.86,29.78,9,1,9,0.00
2013-7-8,78.8,60.9,51.9,56.9,52.9,49.9,95,77,43,29.95,29.86,8,1,9,0.00
2013-7-9,91.3,64.4,48.7,59.9,53.7,47.3,96,74,31,29.99,29.90,8,1,8,0.00
2013-7-10,78.5,62.5,53.3,59.3,54.8,52.2,96,78,50,29.97,29.88,7,1,9,0.00
2013-7-11,77.4,60.1,52.0,57.7,53.1,50.3,95,80,49,29.93,29.88,7,1,9,0.00
2013-7-12,80.8,60.8,51.3,58.6,52.8,49.8,95,78,42,29.93,29.86,8,1,9,0.00
2013-7-13,81.5,60.3,49.2,58.7,52.9,47.8,96,79,45,29.96,29.88,8,1,8,0.00
2013-7-14,81.2,60.7,50.1,59.5,53.3,49.0,97,79,43,29.99,29.88,8,1,9,0.00
2013-7-15,76.7,59.7,51.8,57.8,53.2,50.3,96,81,51,29.92,29.82,7,1,8,0.00
2013-7-16,78.9,61.2,53.5,58.2,54.0,51.2,93,79,47,30.00,29.86,7,1,8,0.00
2013-7-17,81.8,62.9,48.6,59.9,54.1,46.9,96,75,46,30.06,29.99,8,1,8,0.00
2013-7-18,83.9,61.2,48.3,59.7,53.6,46.6,96,79,43,30.03,29.92,9,1,9,0.00
2013-7-19,78.0,60.6,51.5,59.3,54.0,50.3,96,81,51,29.94,29.82,7,1,11,0.00
2013-7-20,69.0,57.9,52.0,57.5,53.1,50.8,96,85,62,29.85,29.77,8,1,10,0.00
2013-7-21,79.2,63.0,51.7,60.3,54.8,50.0,95,77,50,29.88,29.77,8,1,8,0.00
2013-7-22,74.5,64.1,56.2,62.1,57.4,53.3,93,79,59,29.94,29.86,7,1,9,0.00
2013-7-23,81.0,65.8,56.6,61.2,57.3,53.4,92,76,49,29.98,29.92,8,1,10,0.00
2013-7-24,84.9,63.7,52.9,61.3,55.7,51.5,96,78,44,29.96,29.88,8,1,8,0.00
2013-7-25,78.8,60.7,52.7,60.0,54.4,51.3,97,82,50,30.01,29.92,8,1,8,0.00
2013-7-26,78.4,61.0,53.2,60.0,55.0,51.8,96,82,53,30.08,30.00,9,1,9,0.00
2013-7-27,71.3,61.4,53.5,58.7,55.3,52.1,96,81,62,30.02,29.86,9,2,10,0.00
2013-7-28,68.5,58.1,52.6,57.7,53.7,51.4,97,86,67,29.89,29.83,9,1,9,0.00
2013-7-29,68.2,58.7,54.1,57.0,53.0,50.6,90,82,66,30.01,29.86,7,1,9,0.00
2013-7-30,75.3,60.6,54.2,57.7,53.2,50.7,90,78,52,30.08,30.01,9,1,10,0.00
2013-7-31,78.7,61.2,52.8,59.1,53.7,50.5,93,79,49,30.08,29.99,9,1,9,0.00
2013-8-1,80.8,61.6,45.2,57.9,51.1,43.6,97,72,40,30.06,29.93,8,1,9,0.00
2013-8-2,78.3,59.1,46.3,58.5,51.7,44.5,96,79,48,29.97,29.89,8,1,9,0.00
2013-8-3,70.4,57.4,52.2,57.0,52.9,50.9,96,86,61,29.98,29.91,8,1,9,0.01
2013-8-4,75.5,58.4,52.3,58.2,53.2,50.5,96,84,54,30.00,29.93,8,1,9,0.01
2013-8-5,81.0,60.5,50.5,59.8,53.3,48.8,95,79,45,30.00,29.91,7,1,7,0.00
2013-8-6,75.9,60.1,52.5,59.1,53.8,50.8,95,81,54,30.04,29.95,9,1,9,0.00
2013-8-7,78.5,63.0,55.0,58.2,54.7,52.4,92,76,48,30.08,29.99,7,1,8,0.00
2013-8-8,76.0,61.6,54.6,59.3,55.1,51.8,95,81,54,30.02,29.91,8,1,8,0.00
2013-8-9,79.8,62.8,53.4,60.1,54.8,50.3,93,77,50,29.97,29.90,7,1,9,0.00
2013-8-10,83.8,64.3,55.4,61.8,56.6,53.1,94,78,46,30.01,29.95,9,1,9,0.00
2013-8-11,82.0,62.6,53.3,61.1,55.8,51.8,96,80,48,30.00,29.91,7,1,8,0.00
2013-8-12,81.3,61.7,51.5,61.0,55.2,50.4,96,81,49,29.97,29.91,10,1,10,0.00
2013-8-13,84.1,62.6,48.4,59.2,53.8,47.3,97,77,41,29.96,29.88,10,1,10,0.00
2013-8-14,89.7,65.9,47.5,59.5,52.8,42.8,96,69,21,29.95,29.86,11,1,12,0.00
2013-8-15,96.3,74.0,54.3,64.5,59.7,52.6,96,66,28,29.92,29.85,7,1,8,0.00
2013-8-16,95.9,69.3,56.2,66.0,59.6,54.5,97,76,36,29.94,29.87,7,1,9,0.00
2013-8-17,80.2,64.3,53.5,60.9,55.9,50.9,93,76,50,29.97,29.85,9,1,10,0.00
2013-8-18,81.8,64.1,52.3,62.4,56.7,50.8,97,80,48,29.88,29.76,8,1,11,0.00
2013-8-19,78.9,63.2,53.7,61.6,56.2,52.3,96,80,50,29.90,29.80,8,1,9,0.00
2013-8-20,73.2,60.5,54.2,59.6,55.2,52.8,96,84,59,29.90,29.83,9,1,10,0.00
2013-8-21,79.5,62.7,53.9,59.1,54.5,51.9,94,77,46,29.92,29.83,8,1,8,0.00
2013-8-22,81.7,60.8,49.7,59.4,53.1,48.0,96,79,44,29.95,29.84,7,1,9,0.00
2013-8-23,83.0,62.5,50.3,60.9,54.6,48.4,95,78,45,29.91,29.78,8,1,8,0.00
2013-8-24,85.8,64.8,48.7,61.5,55.4,47.3,97,75,40,29.87,29.80,12,1,12,0.00
2013-8-25,80.3,66.0,56.5,62.9,58.3,51.5,96,78,44,29.92,29.86,10,1,10,0.00
2013-8-26,85.9,67.8,58.4,62.1,56.7,49.0,92,70,43,29.97,29.84,8,1,9,0.00
2013-8-27,85.3,65.7,49.9,59.2,53.1,46.6,90,67,38,29.88,29.77,8,1,8,0.00
2013-8-28,91.0,66.1,51.0,62.1,56.7,49.3,96,76,37,29.92,29.82,8,1,8,0.00
2013-8-29,88.3,69.3,55.8,64.8,59.9,54.6,97,75,44,30.00,29.92,8,1,8,0.00
2013-8-30,97.7,73.2,55.4,64.4,57.7,50.8,96,64,27,30.00,29.85,9,1,9,0.00
2013-8-31,88.5,68.2,55.1,60.1,54.2,49.1,88,65,26,29.93,29.83,8,1,8,0.00
2013-9-1,90.2,70.7,58.7,64.2,57.7,54.9,88,67,34,29.90,29.81,8,1,8,0.00
2013-9-2,85.8,70.9,62.9,65.9,60.0,57.1,84,70,45,29.92,29.82,5,1,11,0.00
2013-9-3,88.0,68.9,55.8,59.7,55.2,49.4,91,66,32,29.95,29.87,12,1,12,0.00
2013-9-4,85.6,67.6,55.0,59.8,55.6,52.4,93,69,37,30.00,29.89,12,1,12,0.00
2013-9-5,83.6,67.3,58.7,59.7,55.3,51.8,87,68,38,29.98,29.91,12,1,12,0.00
2013-9-6,94.4,70.0,48.3,58.8,52.6,46.3,94,61,26,29.96,29.77,7,1,9,0.00
2013-9-7,84.3,65.8,53.5,60.0,54.4,48.4,94,69,38,29.85,29.79,8,1,8,0.00
2013-9-8,84.0,62.7,52.6,61.7,56.0,51.4,97,81,45,29.85,29.75,7,1,9,0.00
2013-9-9,80.3,62.4,52.3,61.2,55.9,51.1,97,82,50,29.78,29.70,8,1,9,0.00
2013-9-10,61.3,58.0,54.7,58.0,56.1,53.5,97,94,88,29.90,29.74,6,0,7,0.01
2013-9-11,59.5,59.4,59.0,57.1,56.8,56.4,92,91,91,29.90,29.90,2,0,2,0.00
2013-9-12,82.3,64.7,53.7,62.9,57.6,52.0,95,80,50,29.95,29.85,3,1,8,0.00
2013-9-13,79.5,62.2,51.2,61.2,55.8,49.8,97,82,53,29.88,29.73,3,1,8,0.00
2013-9-14,79.6,62.2,48.4,60.8,54.1,47.0,97,77,51,29.80,29.69,7,1,7,0.01
2013-9-15,83.7,64.1,48.8,61.3,54.8,47.1,96,75,45,29.83,29.75,8,1,9,0.00
2013-9-16,86.0,64.9,51.3,62.1,55.2,49.8,97,74,38,29.86,29.75,10,1,12,0.00
2013-9-17,74.9,62.1,54.1,54.9,52.6,48.6,94,73,43,29.87,29.82,16,1,20,0.00
2013-9-18,84.5,63.3,46.5,56.7,49.5,44.6,96,66,29,29.87,29.77,9,1,9,0.00
2013-9-19,92.5,71.6,45.1,54.9,46.8,40.8,89,50,17,29.83,29.69,7,1,9,0.00
2013-9-20,78.5,61.7,48.9,61.9,53.6,43.3,92,76,55,29.85,29.75,9,1,10,0.00
2013-9-21,64.1,58.7,52.1,60.0,56.7,50.9,97,93,77,29.89,29.80,10,1,10,0.60
2013-9-22,77.6,59.0,46.8,60.2,52.2,46.0,98,81,46,29.97,29.89,11,1,11,0.01
2013-9-23,88.2,65.6,48.9,58.4,53.7,47.2,96,69,32,29.98,29.87,8,1,8,0.00
2013-9-24,76.8,63.4,54.3,58.5,52.9,48.8,92,71,40,29.95,29.88,14,1,15,0.00
2013-9-25,68.5,58.6,51.7,49.3,46.7,41.7,85,66,40,29.91,29.80,16,2,18,0.00
2013-9-26,78.7,57.6,41.7,47.1,40.9,35.2,95,61,22,29.96,29.80,11,1,11,0.00
2013-9-27,81.8,59.8,41.0,44.1,37.7,28.8,87,52,15,30.06,29.96,11,0,11,0.00
2013-9-28,86.5,62.9,43.0,49.2,40.4,36.3,81,50,20,30.05,29.94,7,1,7,0.00
2013-9-29,85.1,64.4,47.8,58.6,51.6,44.4,91,67,27,30.07,29.98,8,1,10,0.00
2013-9-30,81.2,64.3,51.7,62.3,56.4,50.0,95,78,50,30.05,29.91,9,1,13,0.00
2013-10-1,72.6,61.1,50.1,54.9,49.0,41.7,87,66,46,29.99,29.88,8,1,8,0.00
2013-10-2,78.2,58.2,44.5,55.5,46.7,39.6,94,69,35,29.98,29.89,7,1,8,0.00
2013-10-3,76.0,57.1,41.1,43.4,37.7,30.4,90,55,21,30.02,29.90,12,0,14,0.00
2013-10-4,84.5,66.8,53.0,37.4,32.9,28.1,49,30,16,30.05,29.91,14,1,15,0.00
2013-10-5,90.3,64.9,43.9,39.4,32.2,16.6,71,38,7,30.14,30.05,9,1,9,0.00
2013-10-6,86.8,63.4,44.3,42.2,33.2,19.6,70,40,9,30.08,29.97,8,1,8,0.00
2013-10-7,82.4,60.2,44.8,52.3,42.2,34.4,90,56,24,29.98,29.84,8,1,8,0.00
2013-10-8,69.3,53.0,41.9,53.5,46.8,39.1,94,81,55,29.89,29.72,9,1,9,0.00
2013-10-9,68.3,54.6,46.7,50.8,46.9,42.4,94,77,51,29.75,29.61,6,1,8,0.00
2013-10-10,60.7,49.4,41.2,51.5,45.1,38.5,94,86,71,30.01,29.75,8,1,8,0.00
2013-10-11,69.9,54.1,45.8,53.1,47.7,43.3,94,81,52,30.06,29.94,8,1,8,0.00
2013-10-12,72.1,52.3,39.3,52.8,45.4,37.7,97,80,49,29.99,29.89,7,1,7,0.00
2013-10-13,70.2,53.8,43.5,52.9,47.2,41.8,96,80,52,30.04,29.91,9,1,9,0.00
2013-10-14,84.0,59.3,40.3,49.1,41.5,37.4,91,59,22,30.07,29.94,7,0,8,0.00
2013-10-15,85.5,61.3,41.8,41.0,37.6,33.3,80,48,17,29.99,29.89,8,0,8,0.00
2013-10-16,82.7,60.6,43.0,43.9,36.1,28.5,77,46,15,30.04,29.96,11,1,12,0.00
2013-10-17,87.8,61.5,41.6,44.3,36.3,31.4,75,45,17,30.04,29.92,6,0,7,0.00
2013-10-18,83.8,59.4,41.3,50.1,38.9,33.1,86,54,17,30.01,29.93,6,1,6,0.00
2013-10-19,84.1,57.5,41.8,50.5,43.6,37.9,93,67,23,30.03,29.96,7,1,7,0.00
2013-10-20,75.8,53.7,40.3,52.4,45.6,38.7,96,78,42,30.00,29.88,7,1,7,0.00
2013-10-21,72.1,52.2,39.4,52.6,45.3,38.0,96,81,44,29.97,29.89,5,1,7,0.01
2013-10-22,69.8,51.3,39.1,52.6,45.9,37.8,97,84,48,29.98,29.91,7,1,8,0.00
2013-10-23,64.3,49.7,40.7,53.9,46.4,39.3,97,89,67,29.96,29.88,7,1,8,0.01
2013-10-24,62.6,50.4,45.3,52.7,47.4,44.1,97,90,69,30.09,29.95,7,0,7,0.00
2013-10-25,70.3,52.5,39.6,54.5,45.8,38.5,97,80,46,30.13,30.04,6,1,7,0.01
2013-10-26,78.1,54.0,40.7,54.0,46.4,39.1,96,79,38,30.11,29.98,6,1,6,0.00
2013-10-27,66.5,50.9,42.9,54.2,46.9,41.8,97,87,64,30.01,29.72,14,1,15,0.01
2013-10-28,60.0,53.2,49.3,49.7,47.0,43.8,94,80,57,29.85,29.67,13,1,15,0.02
2013-10-29,62.7,51.5,43.5,52.1,47.6,41.3,97,87,59,30.03,29.84,9,1,9,0.01
2013-10-30,68.2,50.9,37.6,50.2,43.4,36.0,97,78,49,30.12,30.03,6,0,8,0.00
2013-10-31,63.2,43.9,39.8,50.0,41.1,37.9,95,90,61,30.15,30.09,3,0,4,0.00
2013-11-1,79.3,56.0,40.1,49.2,41.7,38.0,93,65,26,30.10,29.99,2,0,7,0.00
2013-11-2,71.2,53.5,38.3,50.7,41.9,35.3,89,68,40,30.00,29.89,3,1,8,0.00
2013-11-3,67.1,52.6,40.5,42.5,35.2,28.3,92,57,24,29.99,29.88,2,0,9,0.00
2013-11-4,68.5,50.5,34.9,37.2,32.6,29.0,88,56,25,30.01,29.89,2,0,10,0.00
2013-11-5,76.0,58.5,46.7,41.5,33.6,29.1,65,42,21,30.19,30.02,1,0,8,0.00
2013-11-6,79.5,60.6,40.0,42.3,35.4,28.3,80,44,16,30.21,30.12,7,1,7,0.00
2013-11-7,75.1,56.0,43.2,43.8,38.4,32.0,77,55,22,30.14,30.03,6,0,6,0.00
2013-11-8,76.6,56.8,40.6,51.6,43.7,36.9,90,65,28,30.05,29.91,6,0,6,0.00
2013-11-9,68.8,51.9,41.5,50.9,45.3,39.3,94,80,36,30.04,29.94,7,1,9,0.00
2013-11-10,65.0,52.1,44.5,51.6,47.2,42.8,95,84,58,30.10,30.01,7,1,7,0.00
2013-11-11,70.8,54.3,42.3,50.0,45.9,41.0,96,76,39,30.14,30.04,5,0,5,0.00
2013-11-12,77.5,60.1,48.3,51.7,46.7,43.3,83,64,34,30.23,30.12,6,0,7,0.00
2013-11-13,48.2,46.3,44.5,43.4,42.3,41.1,89,86,83,30.22,30.18,2,0,2,0.00
2013-11-14,64.3,51.3,41.3,53.2,47.0,39.6,95,85,66,30.08,29.88,6,1,10,0.00
2013-11-15,65.6,52.3,40.9,50.8,43.9,37.6,91,74,51,29.88,29.70,8,1,10,0.00
2013-11-16,64.2,48.1,35.3,48.6,42.2,33.5,96,82,54,29.92,29.77,6,1,10,0.00
2013-11-17,63.2,49.4,40.6,50.7,44.7,38.9,96,85,61,30.08,29.92,7,0,8,0.00
2013-11-18,61.4,47.9,39.4,48.7,43.3,38.0,96,85,60,30.13,30.05,7,0,8,0.00
2013-11-19,59.9,51.0,43.9,52.5,48.8,41.6,96,93,75,30.10,29.95,1,0,4,0.30
2013-11-20,56.6,53.7,47.3,55.7,52.8,46.3,97,97,96,29.95,29.82,7,0,7,0.39
2013-11-21,59.6,51.5,45.8,48.8,41.1,29.2,98,72,42,29.92,29.85,10,0,11,0.01
2013-11-22,66.5,51.0,38.0,35.7,29.0,19.3,83,46,20,29.98,29.88,8,0,10,0.00
2013-11-23,64.0,46.7,35.2,50.2,40.0,32.3,95,79,44,30.10,29.94,8,0,9,0.00
2013-11-24,66.3,47.3,34.1,47.4,40.0,32.8,97,79,44,30.23,30.09,6,0,6,0.00
2013-11-25,69.3,48.9,35.6,47.1,40.4,34.0,96,76,40,30.29,30.20,4,0,7,0.01
2013-11-26,72.5,51.1,38.0,46.6,41.6,35.8,93,74,35,30.23,30.00,5,0,5,0.00
2013-11-27,67.3,50.4,38.8,47.6,42.2,37.2,96,76,40,30.00,29.82,7,0,7,0.00
2013-11-28,69.3,50.9,41.0,48.7,42.2,38.9,94,76,39,30.06,29.83,5,0,5,0.00
2013-11-29,76.0,52.0,38.0,48.6,40.9,36.3,96,72,28,30.20,30.06,6,0,7,0.00
2013-11-30,77.5,50.2,35.4,46.0,39.1,33.6,95,71,25,30.23,30.14,6,0,6,0.00
2013-12-1,77.7,52.5,37.5,48.9,41.1,35.3,94,70,28,30.30,30.17,7,0,8,0.00
2013-12-2,66.3,50.3,37.4,50.3,43.8,35.3,95,80,48,30.21,29.96,8,1,11,0.00
2013-12-3,52.5,47.3,36.3,48.8,40.6,31.0,95,78,51,29.97,29.81,13,1,13,0.00
2013-12-4,54.8,37.7,27.0,32.9,27.9,21.8,91,71,30,30.06,29.91,8,1,11,0.00
2013-12-5,52.1,35.1,23.4,32.6,25.8,20.7,92,72,34,30.17,30.06,8,0,8,0.00
2013-12-6,51.1,38.8,25.0,47.0,32.8,22.1,94,81,54,30.19,29.94,20,1,20,0.38
2013-12-7,49.1,40.8,28.6,47.3,33.9,25.9,96,78,45,30.22,29.90,16,1,20,0.33
2013-12-8,51.1,34.4,27.1,33.0,25.9,21.7,94,74,37,30.28,30.16,7,0,8,0.01
2013-12-9,56.7,37.6,25.2,29.0,22.1,15.7,85,58,24,30.38,30.27,5,0,6,0.00
2013-12-10,63.5,39.6,24.9,30.5,26.0,21.3,90,64,22,30.37,30.15,6,0,6,0.00
2013-12-11,66.3,42.9,29.0,35.2,28.8,25.4,88,64,22,30.18,30.11,5,0,7,0.00
2013-12-12,63.7,41.7,27.9,36.0,29.7,25.3,91,68,28,30.23,30.14,7,0,7,0.00
2013-12-13,61.5,41.4,27.9,43.9,33.3,25.6,94,75,40,30.31,30.20,6,0,8,0.00
2013-12-14,70.4,45.6,29.7,42.7,35.3,27.3,95,72,32,30.34,30.25,6,0,7,0.00
2013-12-15,74.7,48.2,31.4,43.0,35.0,28.9,93,66,24,30.32,30.17,5,0,5,0.00
2013-12-16,80.4,52.3,35.6,42.4,35.8,30.1,86,61,16,30.18,30.06,3,0,6,0.00
2013-12-17,76.9,53.0,38.0,45.6,37.9,31.8,85,62,21,30.12,29.98,4,0,5,0.00
2013-12-18,60.8,49.6,43.6,50.3,44.0,39.2,93,81,66,30.00,29.77,8,0,8,0.00
2013-12-19,58.9,47.9,35.7,43.7,37.1,31.5,92,68,40,29.89,29.70,13,1,16,0.00
2013-12-20,64.5,44.1,30.3,31.5,22.3,8.2,87,51,12,29.99,29.88,6,0,7,0.00
2013-12-21,66.2,45.7,31.9,44.6,34.4,24.0,90,67,42,30.06,29.93,7,1,7,0.00
2013-12-22,65.3,45.7,33.8,50.1,40.4,31.9,96,84,47,30.27,30.06,6,0,7,0.00
2013-12-23,69.5,48.0,34.1,48.4,39.2,32.6,96,76,32,30.35,30.27,5,0,6,0.01
2013-12-24,77.5,51.2,35.9,46.8,38.6,33.2,92,67,30,30.29,30.15,5,0,6,0.00
2013-12-25,76.9,50.4,34.4,45.3,35.8,30.8,89,64,20,30.23,30.14,6,0,7,0.00
2013-12-26,81.4,51.4,33.1,44.1,34.9,24.8,93,62,13,30.20,30.10,4,0,5,0.00
2013-12-27,73.4,48.9,33.2,43.5,35.8,29.4,88,65,23,30.18,30.07,4,0,4,0.00
2013-12-28,69.6,47.3,31.6,37.9,31.1,26.2,90,60,23,30.09,29.98,5,0,9,0.00
2013-12-29,73.8,48.8,33.4,33.9,29.7,23.5,79,54,17,30.15,30.04,7,0,7,0.00
2013-12-30,67.2,45.9,31.5,37.7,30.3,25.9,85,60,22,30.23,30.15,8,0,8,0.00
2013-12-31,67.4,45.7,30.0,40.8,32.6,25.8,85,64,30,30.24,30.10,6,0,6,0.00
2014-1-1,72.7,48.8,31.7,43.1,34.2,28.5,90,62,23,30.17,30.07,4,0,4,0.00
2014-1-2,75.7,51.3,35.1,43.0,36.0,30.5,84,61,24,30.12,30.00,5,0,5,0.00